GW1213 Weather Reports


Display with metric or nautical units.
time (UTC)temp
F
wind
direction
speed
MPH
gust
MPH
rain 1hr
in
rain 24hr
in
rain mn
in
humidity
%
barometer
mb
20260508022038 53 0 0.0 0.0 0.00 0.04 0.04 82 1011.1
20260508021554 53 0 0.0 0.0 0.00 0.04 0.04 81 1011.1
20260508021037 53 0 0.0 0.0 0.00 0.04 0.04 81 1011.1
20260508020537 53 0 0.0 0.0 0.00 0.04 0.04 81 1011.1
20260508020049 53 0 0.0 0.0 0.00 0.04 0.04 80 1011.0
20260508015537 53 0 0.0 1.0 0.00 0.04 0.04 80 1011.0
20260508015038 53 0 0.0 3.0 0.00 0.04 0.04 79 1010.9
20260508014551 53 0 0.0 3.0 0.00 0.04 0.04 79 1010.8
20260508014038 53 0 0.0 0.0 0.00 0.04 0.04 79 1010.8
20260508013538 53 0 0.0 0.0 0.00 0.04 0.04 79 1010.8
20260508013057 53 0 0.0 0.0 0.00 0.04 0.04 79 1010.8
20260508012538 53 0 0.0 0.0 0.00 0.04 0.04 78 1010.7
20260508012039 53 0 0.0 0.0 0.00 0.04 0.04 78 1010.7
20260508011554 53 0 0.0 0.0 0.00 0.04 0.04 78 1010.6
20260508011035 53 0 0.0 0.0 0.00 0.04 0.04 78 1010.7
20260508010538 54 0 0.0 0.0 0.00 0.04 0.04 77 1010.7
20260508010048 54 0 0.0 0.0 0.00 0.04 0.04 78 1010.6
20260508005537 54 0 0.0 0.0 0.00 0.04 0.04 77 1010.5
20260508005041 54 0 0.0 0.0 0.00 0.04 0.04 77 1010.4
20260508004547 54 0 0.0 0.0 0.00 0.04 0.04 76 1010.4
20260508004040 54 0 0.0 0.0 0.00 0.04 0.04 76 1010.4
20260508003537 54 0 0.0 0.0 0.00 0.04 0.04 76 1010.4
20260508003051 55 0 0.0 0.0 0.00 0.04 0.04 75 1010.3
20260508002539 55 0 0.0 1.0 0.00 0.04 0.04 75 1010.3
20260508002037 55 0 0.0 3.0 0.00 0.04 0.04 75 1010.3
20260508001609 55 0 0.0 3.0 0.00 0.04 0.04 75 1010.3
20260508001041 56 0 0.0 3.0 0.00 0.04 0.04 74 1010.2
20260508000541 56 0 0.0 3.0 0.00 0.04 0.04 74 1010.2
20260508000053 56 0 0.0 4.0 0.00 0.04 0.04 74 1010.1
20260507235539 56 0 0.0 4.0 0.00 0.04 0.04 73 1010.1
20260507235038 56 225 1.0 5.0 0.00 0.04 0.04 72 1010.0
20260507234551 56 209 1.0 5.0 0.00 0.04 0.04 72 1009.9
20260507234058 57 161 1.0 5.0 0.00 0.04 0.04 72 1009.8
20260507233538 57 0 1.0 5.0 0.00 0.04 0.04 73 1009.7
20260507233047 57 221 1.0 4.0 0.00 0.04 0.04 72 1009.7
20260507232538 57 139 0.0 4.0 0.00 0.04 0.04 71 1009.6
20260507232038 57 148 1.0 4.0 0.00 0.04 0.04 72 1009.5
20260507231548 57 136 0.0 8.0 0.00 0.04 0.04 71 1009.3
20260507231037 57 0 1.0 8.0 0.00 0.04 0.04 72 1009.3
20260507230538 57 194 1.0 8.0 0.00 0.04 0.04 73 1009.3
20260507230049 57 146 1.0 5.0 0.00 0.04 0.04 73 1009.3
20260507225540 57 0 1.0 9.0 0.00 0.04 0.04 73 1009.2
20260507225038 57 192 2.0 9.0 0.00 0.04 0.04 74 1009.3
20260507224557 57 103 0.0 10.0 0.00 0.04 0.04 73 1009.3
20260507224040 57 256 2.0 10.0 0.00 0.04 0.04 73 1009.3
20260507223539 58 180 2.0 9.0 0.00 0.04 0.04 73 1009.2
20260507223053 58 139 3.0 9.0 0.00 0.04 0.04 74 1009.2
20260507222537 58 69 2.0 7.0 0.00 0.04 0.04 74 1009.2
20260507222042 58 58 1.0 8.0 0.00 0.04 0.04 72 1009.3
20260507221553 58 143 1.0 8.0 0.00 0.04 0.04 71 1009.3
20260507221036 58 211 1.0 8.0 0.00 0.04 0.04 73 1009.3
20260507220537 57 205 1.0 8.0 0.00 0.04 0.04 72 1009.1
20260507220049 57 231 2.0 8.0 0.00 0.04 0.04 72 1008.9
20260507215538 57 167 1.0 7.0 0.00 0.04 0.04 73 1008.9
20260507215037 57 52 2.0 10.0 0.00 0.04 0.04 72 1009.0
20260507214553 57 82 3.0 10.0 0.00 0.04 0.04 72 1009.0
20260507214037 57 0 3.0 8.0 0.00 0.04 0.04 73 1009.0
20260507213538 57 61 3.0 8.0 0.00 0.04 0.04 72 1009.0
20260507213046 57 101 1.0 7.0 0.00 0.04 0.04 72 1009.1
20260507212537 57 273 1.0 7.0 0.00 0.04 0.04 72 1009.2
20260507212037 57 65 2.0 6.0 0.00 0.04 0.04 72 1009.2
20260507211555 57 59 2.0 8.0 0.00 0.04 0.04 70 1009.2
20260507211037 57 0 2.0 8.0 0.00 0.04 0.04 69 1009.3
20260507210541 58 73 4.0 8.0 0.00 0.04 0.04 70 1009.1
20260507210054 58 243 3.0 9.0 0.00 0.04 0.04 70 1009.3
20260507205537 57 142 2.0 9.0 0.00 0.04 0.04 71 1009.4
20260507205103 57 169 3.0 9.0 0.00 0.04 0.04 72 1009.3
20260507204556 57 147 2.0 10.0 0.00 0.04 0.04 73 1009.3
20260507204038 57 55 4.0 10.0 0.00 0.04 0.04 70 1009.3
20260507203537 58 89 3.0 10.0 0.00 0.04 0.04 68 1009.3
20260507203055 58 120 3.0 10.0 0.00 0.04 0.04 67 1009.4
20260507202539 58 252 2.0 7.0 0.00 0.04 0.04 66 1009.4
20260507202042 58 240 1.0 6.0 0.00 0.04 0.04 68 1009.4
20260507201553 58 298 2.0 7.0 0.00 0.04 0.04 68 1009.5
20260507201039 57 161 2.0 7.0 0.00 0.04 0.04 69 1009.4
20260507200538 56 71 3.0 6.0 0.00 0.04 0.04 69 1009.4
20260507200045 56 52 1.0 10.0 0.00 0.04 0.04 70 1009.4
20260507195538 56 57 5.0 10.0 0.00 0.04 0.04 67 1009.4
20260507195038 56 85 5.0 10.0 0.00 0.04 0.04 68 1009.5
20260507194549 56 67 3.0 8.0 0.00 0.04 0.04 66 1009.6
20260507194037 56 0 0.0 8.0 0.00 0.04 0.04 67 1009.7
20260507193537 56 0 3.0 8.0 0.00 0.04 0.04 65 1010.0
20260507193054 56 84 0.0 8.0 0.00 0.04 0.04 67 1009.8
20260507192537 56 105 1.0 9.0 0.01 0.04 0.04 67 1009.8
20260507192038 56 69 4.0 9.0 0.01 0.04 0.04 68 1009.6
20260507191554 56 64 1.0 11.0 0.01 0.04 0.04 67 1009.6
20260507191037 55 89 4.0 11.0 0.01 0.04 0.04 68 1009.7
20260507190539 56 59 4.0 9.0 0.01 0.04 0.04 69 1009.5
20260507190053 56 159 3.0 8.0 0.01 0.04 0.04 67 1010.0
20260507185538 56 102 3.0 8.0 0.01 0.04 0.04 69 1010.1
20260507185040 55 64 2.0 5.0 0.01 0.04 0.04 70 1010.1
20260507184550 55 76 2.0 6.0 0.01 0.04 0.04 68 1010.2
20260507184039 55 65 0.0 6.0 0.01 0.04 0.04 68 1010.1
20260507183540 55 65 4.0 6.0 0.01 0.04 0.04 66 1010.3
20260507183046 56 73 1.0 3.0 0.01 0.04 0.04 62 1010.6
20260507182538 56 77 0.0 2.0 0.00 0.03 0.03 60 1010.5
20260507182039 56 0 0.0 8.0 0.00 0.03 0.03 60 1010.3
20260507181552 56 0 1.0 8.0 0.00 0.03 0.03 58 1010.7
20260507181038 56 0 0.0 5.0 0.00 0.03 0.03 57 1010.4
20260507180538 56 0 1.0 5.0 0.00 0.03 0.03 57 1010.4
20260507180053 56 14 0.0 5.0 0.00 0.03 0.03 56 1010.3
20260507175538 56 0 1.0 6.0 0.00 0.03 0.03 54 1010.7
20260507175038 57 69 2.0 6.0 0.00 0.03 0.03 52 1010.8
20260507174554 57 0 0.0 4.0 0.00 0.03 0.03 56 1010.8
20260507174037 56 34 1.0 4.0 0.00 0.03 0.03 53 1010.6
20260507173541 56 31 2.0 4.0 0.00 0.03 0.03 56 1010.6
20260507173053 56 345 1.0 3.0 0.00 0.03 0.03 56 1010.6
20260507172539 56 35 0.0 3.0 0.00 0.03 0.03 60 1010.7
20260507172038 56 0 0.0 2.0 0.00 0.03 0.03 62 1010.9
20260507171603 57 0 0.0 3.0 0.00 0.03 0.03 64 1010.8
20260507171038 57 352 0.0 3.0 0.00 0.03 0.03 62 1011.2
20260507170539 57 0 0.0 2.0 0.00 0.03 0.03 64 1011.1
20260507170056 57 352 0.0 3.0 0.00 0.03 0.03 64 1011.0
20260507165538 57 15 0.0 3.0 0.00 0.03 0.03 61 1010.9
20260507165038 56 0 0.0 3.0 0.00 0.03 0.03 62 1011.1
20260507164551 56 0 0.0 0.0 0.00 0.03 0.03 64 1011.2
20260507164040 56 0 0.0 0.0 0.00 0.03 0.03 64 1011.4
20260507163538 56 0 0.0 0.0 0.00 0.03 0.03 64 1011.5
20260507163054 56 0 0.0 0.0 0.00 0.03 0.03 63 1011.7
20260507162538 56 0 0.0 0.0 0.00 0.03 0.03 63 1011.6
20260507162038 56 0 0.0 0.0 0.00 0.03 0.03 66 1011.6
20260507161549 57 0 0.0 0.0 0.00 0.03 0.03 65 1011.8
20260507161041 57 0 0.0 0.0 0.00 0.03 0.03 68 1011.4
20260507160538 57 0 0.0 0.0 0.00 0.03 0.03 68 1011.3
20260507160055 57 0 0.0 0.0 0.00 0.03 0.03 67 1011.3
20260507155538 57 0 0.0 0.0 0.00 0.03 0.03 66 1011.7
20260507155038 57 0 0.0 0.0 0.00 0.03 0.03 65 1011.7
20260507154552 57 0 0.0 0.0 0.00 0.03 0.03 64 1011.8
20260507154038 57 0 0.0 0.0 0.00 0.03 0.03 65 1011.7
20260507153538 57 0 0.0 0.0 0.00 0.03 0.03 64 1011.5
20260507153058 57 0 0.0 3.0 0.00 0.03 0.03 64 1011.5
20260507152538 57 0 0.0 3.0 0.00 0.03 0.03 63 1011.6
20260507152038 57 306 0.0 3.0 0.00 0.03 0.03 64 1011.7
20260507151552 57 355 0.0 4.0 0.00 0.03 0.03 64 1011.7
20260507151040 57 5 1.0 4.0 0.00 0.03 0.03 65 1011.7
20260507150539 57 0 1.0 4.0 0.00 0.03 0.03 66 1011.6
20260507150051 57 0 1.0 4.0 0.00 0.03 0.03 67 1011.7
20260507145539 57 319 2.0 4.0 0.00 0.09 0.03 68 1011.5
20260507145038 57 360 0.0 3.0 0.00 0.09 0.03 69 1011.8
20260507144552 57 332 1.0 3.0 0.00 0.09 0.03 71 1011.9
20260507144039 57 0 0.0 4.0 0.00 0.09 0.03 72 1012.0
20260507143538 57 360 1.0 4.0 0.00 0.09 0.03 71 1012.2
20260507143053 57 9 0.0 4.0 0.00 0.09 0.03 70 1012.2
20260507142539 57 0 0.0 4.0 0.00 0.09 0.03 71 1012.2
20260507142039 57 0 0.0 4.0 0.00 0.09 0.03 71 1012.1
20260507141552 57 0 1.0 5.0 0.00 0.09 0.03 70 1012.2
20260507141038 57 20 1.0 5.0 0.00 0.09 0.03 71 1012.2
20260507140539 57 52 0.0 3.0 0.00 0.09 0.03 70 1012.3
20260507140054 57 0 0.0 3.0 0.00 0.09 0.03 69 1012.3
20260507135541 57 331 1.0 4.0 0.00 0.10 0.03 69 1012.4
20260507135038 57 349 1.0 4.0 0.00 0.10 0.03 68 1012.3
20260507134555 57 0 0.0 3.0 0.00 0.10 0.03 70 1012.4
20260507134038 57 0 1.0 3.0 0.00 0.10 0.03 70 1012.3
20260507133538 57 9 1.0 4.0 0.00 0.10 0.03 70 1012.2
20260507133057 57 352 1.0 6.0 0.00 0.10 0.03 70 1012.0
20260507132537 57 349 2.0 6.0 0.00 0.10 0.03 69 1012.1
20260507132041 57 327 2.0 6.0 0.00 0.10 0.03 69 1012.0
20260507131601 57 0 1.0 4.0 0.00 0.10 0.03 71 1012.1
20260507131039 57 0 0.0 3.0 0.00 0.10 0.03 73 1012.1
20260507130538 57 0 0.0 3.0 0.00 0.10 0.03 73 1012.0
20260507130107 57 321 1.0 3.0 0.00 0.10 0.03 74 1012.0
20260507125539 57 355 0.0 3.0 0.00 0.10 0.03 75 1012.2
20260507125038 57 0 1.0 3.0 0.00 0.10 0.03 74 1012.3
20260507124554 57 9 0.0 3.0 0.00 0.10 0.03 75 1012.2
20260507124038 57 0 0.0 4.0 0.00 0.10 0.03 76 1012.0
20260507123537 57 0 0.0 4.0 0.00 0.10 0.03 77 1012.0
20260507123049 57 330 1.0 4.0 0.00 0.10 0.03 78 1011.9
20260507122537 57 337 1.0 3.0 0.00 0.10 0.03 79 1012.0
20260507122037 56 352 0.0 3.0 0.00 0.10 0.03 80 1012.0
20260507121603 56 321 1.0 3.0 0.00 0.10 0.03 80 1011.8
20260507121038 56 0 0.0 3.0 0.00 0.10 0.03 82 1011.7
20260507120537 56 0 1.0 3.0 0.00 0.10 0.03 81 1011.7
20260507120054 56 311 0.0 0.0 0.00 0.10 0.03 83 1011.5
20260507115538 56 0 0.0 0.0 0.00 0.10 0.03 84 1011.5
20260507115037 56 0 0.0 0.0 0.00 0.10 0.03 83 1011.6
20260507114613 56 0 0.0 0.0 0.00 0.10 0.03 84 1011.9
20260507114039 55 0 0.0 0.0 0.00 0.10 0.03 84 1011.9
20260507113538 55 0 0.0 0.0 0.00 0.10 0.03 83 1011.7
20260507113048 55 0 0.0 0.0 0.00 0.10 0.03 84 1011.7
20260507112537 55 0 0.0 1.0 0.00 0.10 0.03 85 1011.6
20260507112038 55 0 0.0 1.0 0.00 0.10 0.03 84 1011.4
20260507111551 55 0 0.0 1.0 0.00 0.10 0.03 84 1011.5
20260507111038 55 0 0.0 0.0 0.00 0.10 0.03 84 1011.6
20260507110539 55 0 0.0 1.0 0.00 0.10 0.03 84 1011.6
20260507110052 55 0 0.0 1.0 0.00 0.10 0.03 85 1011.8
20260507105538 55 0 0.0 2.0 0.00 0.10 0.03 84 1011.6
20260507105041 55 0 0.0 2.0 0.00 0.10 0.03 84 1011.5
20260507104552 55 0 0.0 0.0 0.00 0.10 0.03 84 1011.5
20260507104038 55 0 0.0 0.0 0.00 0.10 0.03 84 1011.4
20260507103539 55 0 0.0 0.0 0.00 0.10 0.03 85 1011.5
20260507103049 55 0 0.0 0.0 0.00 0.10 0.03 84 1011.3
20260507102537 55 0 0.0 0.0 0.00 0.10 0.03 84 1011.4
20260507102038 55 0 0.0 0.0 0.00 0.10 0.03 84 1011.1
20260507101547 55 0 0.0 0.0 0.00 0.10 0.03 84 1011.1
20260507101036 55 0 0.0 0.0 0.00 0.10 0.03 85 1011.1
20260507100539 55 0 0.0 0.0 0.00 0.10 0.03 85 1011.0
20260507100053 55 0 0.0 0.0 0.00 0.10 0.03 87 1011.1
20260507095541 55 0 0.0 0.0 0.00 0.10 0.03 85 1011.3
20260507095038 55 0 0.0 0.0 0.00 0.10 0.03 85 1011.3
20260507094553 55 0 0.0 0.0 0.00 0.10 0.03 85 1011.3
20260507094038 55 0 0.0 0.0 0.00 0.10 0.03 85 1011.1
20260507093538 55 0 0.0 0.0 0.00 0.10 0.03 87 1011.1
20260507093055 55 0 0.0 0.0 0.00 0.10 0.03 86 1011.1
20260507092538 55 0 0.0 0.0 0.00 0.10 0.03 87 1011.0
20260507092038 55 0 0.0 0.0 0.00 0.10 0.03 87 1011.0
20260507091557 55 0 0.0 0.0 0.00 0.10 0.03 86 1011.2
20260507091038 55 0 0.0 1.0 0.00 0.10 0.03 87 1011.2
20260507090538 55 0 0.0 1.0 0.00 0.10 0.03 86 1010.8
20260507090052 55 0 0.0 0.0 0.00 0.10 0.03 87 1010.8
20260507085538 55 0 0.0 0.0 0.00 0.10 0.03 88 1010.7
20260507085038 56 0 0.0 0.0 0.00 0.10 0.03 89 1010.5
20260507084548 56 0 0.0 0.0 0.00 0.10 0.03 89 1010.5
20260507084037 56 0 0.0 0.0 0.00 0.10 0.03 89 1010.8
20260507083538 56 0 0.0 0.0 0.00 0.10 0.03 90 1010.8
20260507083048 56 0 0.0 0.0 0.00 0.10 0.03 90 1010.8
20260507082538 56 0 0.0 0.0 0.00 0.10 0.03 90 1010.9
20260507082038 56 0 0.0 0.0 0.00 0.10 0.03 90 1011.1
20260507081550 56 0 0.0 0.0 0.00 0.10 0.03 90 1011.0
20260507081038 56 0 0.0 1.0 0.00 0.10 0.03 89 1011.0
20260507080539 56 0 0.0 2.0 0.00 0.10 0.03 89 1011.1
20260507080048 56 0 0.0 3.0 0.00 0.10 0.03 89 1010.6
20260507075538 56 0 0.0 3.0 0.00 0.10 0.03 89 1010.3
20260507075038 56 355 0.0 2.0 0.00 0.10 0.03 90 1010.2
20260507074558 56 0 0.0 0.0 0.00 0.10 0.03 90 1010.3
20260507074038 57 0 0.0 0.0 0.00 0.10 0.03 90 1010.3
20260507073542 57 0 0.0 0.0 0.00 0.10 0.03 90 1010.2
20260507073042 57 0 0.0 0.0 0.00 0.10 0.03 90 1010.1
20260507072538 57 0 0.0 0.0 0.00 0.10 0.03 90 1009.9
20260507072037 57 0 0.0 2.0 0.00 0.10 0.03 89 1009.9
20260507071552 57 0 0.0 2.0 0.00 0.10 0.03 90 1010.0
20260507071038 57 0 0.0 2.0 0.00 0.10 0.03 90 1010.0
20260507070538 57 0 0.0 0.0 0.01 0.10 0.03 89 1010.0
20260507070051 57 0 0.0 0.0 0.01 0.10 0.03 89 1010.2
20260507065538 57 0 0.0 1.0 0.01 0.10 0.03 89 1010.2
20260507065038 57 0 0.0 3.0 0.01 0.10 0.03 89 1010.1
20260507064548 57 0 0.0 4.0 0.01 0.10 0.03 89 1009.9
20260507064041 57 349 1.0 5.0 0.01 0.10 0.03 89 1010.0
20260507063536 57 9 1.0 5.0 0.01 0.10 0.03 90 1010.0
20260507063048 58 346 1.0 3.0 0.01 0.10 0.03 91 1010.2
20260507062538 58 0 1.0 4.0 0.01 0.10 0.03 91 1010.3
20260507062042 58 0 1.0 4.0 0.02 0.10 0.03 91 1010.4
20260507061552 58 0 0.0 3.0 0.02 0.10 0.03 90 1009.9
20260507061038 58 0 0.0 3.0 0.02 0.10 0.03 90 1009.6
20260507060538 58 0 0.0 4.0 0.01 0.09 0.02 90 1009.6
20260507060049 59 303 0.0 4.0 0.01 0.09 0.02 90 1009.0
20260507055538 59 0 0.0 5.0 0.01 0.09 0.02 90 1008.7
20260507055042 59 22 1.0 6.0 0.01 0.09 0.02 90 1008.6
20260507054621 59 66 1.0 6.0 0.01 0.09 0.02 90 1008.4
20260507054039 60 0 0.0 4.0 0.02 0.09 0.02 90 1008.7
20260507053538 60 0 0.0 2.0 0.02 0.09 0.02 89 1008.7
20260507053054 60 0 0.0 2.0 0.02 0.09 0.02 89 1009.0
20260507052536 61 0 0.0 0.0 0.02 0.09 0.02 89 1009.4
20260507052038 61 0 0.0 3.0 0.01 0.08 0.01 88 1009.7
20260507051549 61 0 0.0 4.0 0.01 0.08 0.01 88 1009.9
20260507051038 62 322 2.0 4.0 0.01 0.08 0.01 88 1009.9
20260507050537 62 352 0.0 2.0 0.01 0.08 0.01 89 1010.0
20260507050054 63 0 0.0 2.0 0.01 0.08 0.01 89 1009.9
20260507045538 63 0 0.0 3.0 0.01 0.08 0.01 88 1009.7
20260507045038 63 335 0.0 3.0 0.01 0.08 0.01 89 1009.7
20260507044553 64 5 0.0 3.0 0.01 0.08 0.01 88 1009.2
20260507044040 64 276 1.0 3.0 0.00 0.07 0.00 88 1009.3
20260507043538 64 0 1.0 3.0 0.00 0.07 0.00 89 1009.3
20260507043048 65 0 0.0 0.0 0.00 0.07 0.00 90 1009.5
20260507042539 65 0 0.0 0.0 0.00 0.07 0.00 90 1009.3
20260507042038 65 0 0.0 0.0 0.00 0.07 0.00 90 1009.1
20260507041559 65 0 0.0 0.0 0.00 0.07 0.00 90 1008.9
20260507041038 65 0 0.0 0.0 0.00 0.07 0.00 90 1008.9
20260507040538 65 0 0.0 0.0 0.00 0.07 0.00 90 1009.0
20260507040049 65 0 0.0 0.0 0.00 0.07 0.00 90 1009.1
20260507035535 65 0 0.0 0.0 0.00 0.07 0.07 89 1009.0
20260507035039 65 0 0.0 0.0 0.00 0.07 0.07 90 1008.9
20260507034558 65 0 0.0 0.0 0.00 0.07 0.07 90 1008.9
20260507034038 65 0 0.0 0.0 0.00 0.07 0.07 89 1008.8
20260507033538 65 0 0.0 0.0 0.00 0.07 0.07 89 1008.8
20260507033054 65 0 0.0 0.0 0.00 0.07 0.07 89 1008.6
20260507032538 65 0 0.0 0.0 0.00 0.07 0.07 89 1008.6
20260507032038 65 0 0.0 0.0 0.00 0.07 0.07 89 1008.6
20260507031603 65 0 0.0 0.0 0.00 0.07 0.07 89 1008.7
20260507031038 65 0 0.0 0.0 0.00 0.07 0.07 89 1009.0
20260507030537 65 0 0.0 0.0 0.00 0.07 0.07 89 1009.1
20260507030056 65 0 0.0 0.0 0.00 0.07 0.07 88 1009.0
20260507025538 65 0 0.0 0.0 0.00 0.07 0.07 88 1008.7
20260507025039 65 0 0.0 0.0 0.00 0.07 0.07 88 1008.7
20260507024555 65 0 0.0 0.0 0.00 0.07 0.07 88 1008.8
20260507024037 65 0 0.0 0.0 0.00 0.07 0.07 88 1008.7
20260507023538 66 0 0.0 0.0 0.00 0.07 0.07 88 1008.6
20260507023104 66 0 0.0 0.0 0.00 0.07 0.07 88 1008.2
20260507022643 66 0 0.0 0.0 0.00 0.07 0.07 88 1007.9
20260507022535 66 0 0.0 0.0 0.00 0.07 0.07 88 1007.9